Home   Weather   King Edward Point   Past weeks
Flag for South Georgia/Sandwich Is.

Past Weather in King Edward Point, South Georgia/Sandwich Is. — Yesterday and Last 2 Weeks

Now
38 °F

Chilly.


Feels Like: 35 °F
Forecast: 43 / 38 °F
Wind: 5 mph from Northwest

Location: Bird Island, South Georgia

Current Time: Oct 23, 2019 at 2:25:37 pm

Latest Report: Oct 23, 2019 at 1:00 pm


Visibility: N/A

Pressure: 30.07 "Hg

Humidity: 85%

Dew Point: 34 °F

Location of King Edward PointLocation

Past Weather in King Edward Point — Graph

°F

King Edward Point Temperature Yesterday

Maximum temperature yesterday: 35 °F (at 4:00 pm)
Minimum temperature yesterday: 29 °F (at 5:00 am)
Average temperature yesterday: 32 °F

High & Low Weather Summary for the Past Weeks

 TemperatureHumidityPressure
High38 °F (Oct 23, 1:00 pm)98% (Oct 21, 5:00 pm)30.12 "Hg (Oct 21, 5:00 pm)
Low23 °F (Oct 13, 3:00 am)53% (Oct 15, 11:00 am)28.50 "Hg (Oct 9, 10:00 pm)
Average32 °F87%29.48 "Hg
* Reported Oct 8 1:00 pm — Oct 23 1:00 pm, King Edward Point. Weather by CustomWeather, © 2019

Note: Actual official high and low records may vary slightly from our data, if they occured in-between our weather recording intervals... More about our weather records

Advertising

King Edward Point Weather History for the Previous 24 Hours

Scroll right to see more
 ConditionsComfort  
Time TempWeatherWind HumidityBarometerVisibility
1:00 pm
Wed, Oct 23
38 °FChilly.5 mph85%30.07 "HgN/A
12:00 pm37 °FChilly.7 mph90%30.08 "HgN/A
11:00 am35 °FChilly.5 mph97%30.08 "HgN/A
10:00 am33 °FChilly.3 mph98%30.08 "HgN/A
9:00 am31 °FChilly.3 mph98%30.09 "HgN/A
8:00 am32 °FChilly.6 mph98%30.09 "HgN/A
7:00 am31 °FChilly.9 mph98%30.09 "HgN/A
6:00 am32 °FChilly.10 mph98%30.07 "HgN/A
5:00 am32 °FChilly.12 mph98%30.07 "HgN/A
4:00 am33 °FChilly.9 mph98%30.06 "HgN/A
3:00 am34 °FChilly.1 mph98%30.05 "HgN/A
2:00 am34 °FChilly.3 mph98%30.05 "HgN/A
1:00 am34 °FChilly.7 mph98%30.07 "HgN/A
12:00 am34 °FChilly.8 mph98%30.07 "HgN/A
11:00 pm
Tue, Oct 22
34 °FChilly.9 mph98%30.07 "HgN/A
10:00 pm34 °FChilly.8 mph98%30.09 "HgN/A
9:00 pm35 °FChilly.10 mph97%30.09 "HgN/A
8:00 pm33 °FChilly.10 mph98%30.11 "HgN/A
7:00 pm32 °FChilly.8 mph97%30.11 "HgN/A
6:00 pm33 °FChilly.10 mph96%30.11 "HgN/A
5:00 pm34 °FChilly.8 mph92%30.11 "HgN/A
4:00 pm35 °FChilly.7 mph88%30.10 "HgN/A
3:00 pm35 °FChilly.6 mph89%30.12 "HgN/A
2:00 pm34 °FChilly.13 mph89%30.11 "HgN/A
Weather by CustomWeather, © 2019

See weather overview